FENGYUN 1C DEB, 30286

Orbit data source: Space-Track

FENGYUN 1C DEB, 30286 is space debris in SSO originally from a launch on Mon, 10 May 1999 UTC launched from the Taiyaun Space Center, China (TSC). Fengyun 1C debris stems from the Chinese weather satellite Fengyun-1C, which was intentionally destroyed by a Chinese anti-satellite missile in 2007. This event dramatically increased the amount of space debris, with thousands of trackable fragments posing hazards to satellites and human spaceflight. The Fengyun 1C debris cloud has become a focal point in discussions about space sustainability and the need for international regulations to prevent the creation of new debris.

Loading next visibility...
Identifier
30286, 1999-025YX
Orbit
SSO
Country
Flag of CNCN / PRC
Related business
Manufacturer
Unknown
Mission
Spacecraft
Bus & Motor
Unknown
Mass
Unknown
Launch date (UTC)
1999-05-10 (27 years ago)
Launch vehicle
Unknown
Launch site
Taiyaun Space Center, China (TSC)
Object type
Payload
Rocket body
Debris
Shape & HBR
Unknown shape, 0.1 m
Radar Cross Section
Small (<0.1 m²)

Expand to show TLE details & history
Last TLE update: 3 hours ago

TLE from 3 hours ago
0 FENGYUN 1C DEB
1 30286U 99025YX  26062.51407256  .00000157  00000-0  10601-3 0  9994
2 30286  98.6924  69.4896 0062809 263.1733 221.9031 14.12760833985994
Epoch: 2026-03-03T12:20Z
TLE epoch observation values (Epoch: 2026-03-03T12:20:15.869Z)
Latitude
54.55826°
Longitude
-84.53088°
Altitude
892.831 km
Speed
7.393 km/s
True Right ascension
17h 27m 18s
True Declination
54° 23' 55"
Sunlit
Object was in daylight at epoch
Visualization orbit readout
Latitude
Unknown
Longitude
Unknown
Altitude
Unknown
Speed
Unknown
Apparent Right ascension
Unknown
Apparent Declination
Unknown
Sunlit
N/A
Visualization observer readout
Local Sidereal Time
19:31:30
Azimuth
Unknown
Elevation
Unknown
Doppler factor
Unknown
Orbital elements
Apogee altitude
892.488 km
Perigee altitude
801.726 km
Semi-major axis
7,225.244 km
Eccentricity
0.00628
Inclination
98.6924°
RAAN
69.4896°
Arg. of periapsis
263.1733°
True anomaly
221.42521°
Mean anomaly
221.9031°
Eccentric anomaly
221.66387°
Mean motion
3.53398 °/min
Orbital period
101.87 mins
BSTAR
0.00010601
Loading maneuver chart data...
Computing Atmospheric mass density...

Documentation

Showing up to 5 results
|